{"data":{"norad_id":56166,"epoch":"2026-05-24T23:04:58.541952Z","epoch_age_seconds":74203,"freshness":"FRESH","line1":"1 56166U 23050E   26144.96178868  .00000031  00000+0  16729-4 0  9996","line2":"2 56166  80.9996  93.5244 0013329  14.2475 345.9055 13.86945525158895","mean_motion":13.86945525,"eccentricity":0.0013329,"inclination_deg":80.9996,"raan_deg":93.5244,"arg_perigee_deg":14.2475,"mean_anomaly_deg":345.9055,"bstar":1.6729e-5,"rev_number":15889,"period_min":103.82527460839,"perigee_km":929.60122195995,"apogee_km":949.10819135155,"semimajor_km":7317.4917066558,"source":"CELESTRAK","updated_at":"2026-05-25T13:37:59.368757Z"}}